GW5036 Weather Reports


time (UTC)temp
F
wind
direction
speed
knots
gust
knots
rain 1hr
in
rain 24hr
in
rain mn
in
humidity
%
barometer
mb
20260504081808 50 127 0.0 0.0 0.00 0.00 0.00 77 993.2
20260504081307 50 115 0.0 0.0 0.00 0.00 0.00 77 993.3
20260504080807 50 101 0.0 0.0 0.00 0.00 0.00 77 993.2
20260504080525 51 101 0.0 0.0 0.00 0.00 0.00 76 993.3
20260504070251 53 117 0.0 0.0 0.00 0.00 0.00 75 994.2
20260504060246 56 237 3.5 5.2 0.00 0.00 0.00 75 995.0
20260504050511 58 255 7.0 9.6 0.00 0.00 0.00 68 994.9
20260504045732 58 245 7.0 10.4 0.00 0.00 0.00 70 994.9
20260504045231 58 264 7.0 10.4 0.00 0.00 0.00 69 995.0
20260504044728 58 237 7.8 9.6 0.00 0.00 0.00 69 994.9
20260504044227 59 253 7.0 9.6 0.00 0.00 0.00 68 994.9
20260504043728 58 247 7.0 9.6 0.00 0.00 0.00 67 994.8
20260504043227 59 249 7.0 9.6 0.00 0.00 0.00 69 994.9
20260504042725 59 252 7.0 9.6 0.00 0.00 0.00 68 994.8
20260504042225 59 248 7.0 9.6 0.00 0.00 0.00 68 994.9
20260504041223 59 248 6.1 8.7 0.00 0.00 0.00 67 994.8
20260504040724 59 253 5.2 7.0 0.00 0.00 0.00 69 994.9
20260504040223 59 242 5.2 7.0 0.00 0.00 0.00 68 994.8
20260504035723 60 256 5.2 7.8 0.00 0.00 0.00 67 994.8
20260504035223 60 249 6.1 7.8 0.00 0.00 0.00 68 994.9
20260504034949 60 229 6.1 7.8 0.00 0.00 0.00 64 994.9
20260504034224 60 243 5.2 7.8 0.00 0.00 0.00 65 994.9
20260504033722 61 241 5.2 7.8 0.00 0.00 0.00 65 995.0
20260504033222 61 240 6.1 7.8 0.00 0.00 0.00 64 995.1
20260504032724 61 238 5.2 7.8 0.00 0.00 0.00 65 995.1
20260504032223 61 222 4.3 7.8 0.00 0.00 0.00 64 995.1
20260504031723 61 217 3.5 7.0 0.00 0.00 0.00 64 995.1
20260504031223 61 233 4.3 7.0 0.00 0.00 0.00 63 995.2
20260504030723 61 237 4.3 7.0 0.00 0.00 0.00 63 995.1
20260504030221 61 226 5.2 8.7 0.00 0.00 0.00 63 995.1
20260504025721 61 216 4.3 8.7 0.00 0.00 0.00 63 995.1
20260504025221 61 233 3.5 7.0 0.00 0.00 0.00 63 995.1
20260504024721 61 257 4.3 7.0 0.00 0.00 0.00 64 995.2
20260504024218 61 248 3.5 7.0 0.00 0.00 0.00 64 995.2
20260504023719 60 243 2.6 7.0 0.00 0.00 0.00 66 995.2
20260504023218 59 236 0.9 7.0 0.00 0.00 0.00 67 995.1
20260504022719 58 238 0.0 2.6 0.00 0.00 0.00 73 995.1
20260504022444 58 235 0.0 0.9 0.00 0.00 0.00 74 995.1
20260504021718 58 271 0.0 0.9 0.00 0.00 0.00 75 995.1
20260504021217 58 238 0.0 0.9 0.00 0.00 0.00 75 995.1
20260504020717 59 239 0.0 0.9 0.00 0.00 0.00 72 995.1
20260504020217 59 168 0.0 0.0 0.00 0.00 0.00 67 995.0
20260504015716 58 169 0.0 0.9 0.00 0.00 0.00 68 995.0
20260504015216 58 176 0.0 0.9 0.00 0.00 0.00 71 995.0
20260504014716 58 207 0.0 0.9 0.00 0.00 0.00 73 995.0
20260504014217 59 207 0.0 0.9 0.00 0.00 0.00 73 994.9
20260504013714 59 227 0.0 0.9 0.00 0.00 0.00 72 994.9
20260504013214 60 227 0.0 0.0 0.00 0.00 0.00 71 994.9
20260504012213 61 226 0.9 1.7 0.00 0.00 0.00 68 994.8
20260504011713 62 222 0.9 1.7 0.00 0.00 0.00 68 994.8
20260504011212 63 248 0.0 1.7 0.00 0.00 0.00 64 994.7
20260504010713 64 253 0.0 0.9 0.00 0.00 0.00 57 994.6
20260504010213 65 210 0.0 0.9 0.00 0.00 0.00 56 994.5
20260504005713 65 226 0.0 0.9 0.00 0.00 0.00 55 994.5
20260504005212 66 226 0.0 2.6 0.00 0.00 0.00 55 994.4
20260504004713 66 225 0.9 2.6 0.00 0.00 0.00 55 994.5
20260504004213 67 217 1.7 3.5 0.00 0.00 0.00 55 994.5
20260504003712 67 228 2.6 3.5 0.00 0.00 0.00 54 994.6
20260504003213 67 238 3.5 3.5 0.00 0.00 0.00 54 994.5
20260504002933 68 246 3.5 4.3 0.00 0.00 0.00 53 994.5
20260504002210 69 257 3.5 7.8 0.00 0.00 0.00 51 994.5
20260504001709 69 261 4.3 7.8 0.00 0.00 0.00 48 994.6
20260504001209 69 293 5.2 9.6 0.00 0.00 0.00 49 994.6
20260504000709 68 262 7.0 11.3 0.00 0.00 0.00 51 994.6
20260504000208 69 257 7.8 13.0 0.00 0.00 0.00 53 994.6
20260503235707 69 278 7.0 13.0 0.00 0.00 0.00 50 994.5
20260503235205 69 283 7.8 13.0 0.00 0.00 0.00 50 994.6
20260503234705 69 263 7.8 13.0 0.00 0.00 0.00 51 994.6
20260503234205 69 297 7.0 11.3 0.00 0.00 0.00 50 994.7
20260503233702 69 261 7.8 11.3 0.00 0.00 0.00 50 994.7
20260503233203 69 249 8.7 13.0 0.00 0.00 0.00 50 994.7
20260503232703 68 278 9.6 13.0 0.00 0.00 0.00 48 994.7
20260503232203 68 256 10.4 14.8 0.00 0.00 0.00 50 994.8
20260503231658 68 263 11.3 14.8 0.00 0.00 0.00 50 995.0
20260503231158 68 247 10.4 19.1 0.00 0.00 0.00 47 994.9
20260503230659 68 264 11.3 19.1 0.00 0.00 0.00 48 995.1
20260503230158 68 261 11.3 15.6 0.00 0.00 0.00 48 995.1
20260503225658 68 285 10.4 15.6 0.00 0.00 0.00 48 994.9
20260503225158 67 261 10.4 15.6 0.00 0.00 0.00 49 995.0
20260503224658 67 247 11.3 15.6 0.00 0.00 0.00 52 995.1
20260503224158 67 251 11.3 19.1 0.00 0.00 0.00 51 995.1
20260503223658 68 286 11.3 19.1 0.00 0.00 0.00 47 995.1
20260503223151 67 258 13.0 18.2 0.00 0.00 0.00 48 995.1
20260503222643 67 264 13.9 18.2 0.00 0.00 0.00 47 995.1
20260503222138 67 245 13.0 18.2 0.00 0.00 0.00 48 995.1
20260503221631 67 261 12.2 18.2 0.00 0.00 0.00 49 995.1
20260503221347 67 283 14.8 23.5 0.00 0.00 0.00 49 995.1
20260503220620 67 247 15.6 23.5 0.00 0.00 0.00 47 995.0
20260503220115 67 240 13.9 20.9 0.00 0.00 0.00 49 995.1
20260503215830 67 250 13.0 22.6 0.00 0.00 0.00 48 995.1
20260503215326 67 239 12.2 22.6 0.00 0.00 0.00 49 995.3
20260503214556 67 247 13.9 20.9 0.00 0.00 0.00 52 995.2
20260503214049 67 248 14.8 22.6 0.00 0.00 0.00 51 995.2
20260503213544 67 243 13.9 22.6 0.00 0.00 0.00 50 995.2
20260503213038 66 255 14.8 21.7 0.00 0.00 0.00 51 995.3
20260503212531 66 253 17.4 33.0 0.00 0.00 0.00 51 995.3
20260503212026 66 257 16.5 33.0 0.00 0.00 0.00 52 995.5
20260503211520 66 248 16.5 26.1 0.00 0.00 0.00 52 995.4
20260503210508 65 231 16.5 23.5 0.00 0.00 0.00 51 995.7
20260503210001 65 257 17.4 24.3 0.00 0.00 0.00 53 995.8
20260503205456 65 225 17.4 24.3 0.00 0.00 0.00 51 996.0
20260503204950 65 246 16.5 25.2 0.00 0.00 0.00 53 996.1
20260503204444 65 228 18.2 28.7 0.00 0.00 0.00 52 996.1
20260503203938 64 271 18.2 28.7 0.00 0.00 0.00 52 996.2
20260503203432 64 276 18.2 26.9 0.00 0.00 0.00 50 996.3
20260503202421 65 236 18.2 27.8 0.00 0.00 0.00 50 996.4
20260503201914 64 239 18.2 27.8 0.00 0.00 0.00 51 996.4
20260503201414 64 240 18.2 26.1 0.00 0.00 0.00 51 996.4
20260503200915 64 205 18.2 25.2 0.00 0.00 0.00 49 996.4
20260503200413 63 207 17.4 24.3 0.00 0.00 0.00 50 996.7
20260503200137 63 241 13.9 24.3 0.00 0.00 0.00 52 996.8
20260503195414 63 250 12.2 20.0 0.00 0.00 0.00 56 997.0
20260503194916 62 203 13.9 24.3 0.00 0.00 0.00 57 997.0
20260503194414 62 224 13.0 24.3 0.00 0.00 0.00 57 997.2
20260503193914 61 244 13.9 20.9 0.00 0.00 0.00 58 997.2
20260503193415 61 236 15.6 20.9 0.00 0.00 0.00 61 997.4
20260503192913 60 236 17.4 24.3 0.00 0.00 0.00 59 997.5
20260503192410 60 224 18.2 28.7 0.00 0.00 0.00 59 997.8
20260503191909 60 250 18.2 28.7 0.00 0.00 0.00 60 997.8
20260503191635 60 227 17.4 28.7 0.00 0.00 0.00 59 997.9
20260503190910 60 215 15.6 28.7 0.00 0.00 0.00 56 997.8
20260503190410 60 235 13.9 26.9 0.00 0.00 0.00 55 997.7
20260503190131 61 213 13.0 26.9 0.00 0.00 0.00 56 997.7
20260503185409 61 231 12.2 21.7 0.00 0.00 0.00 56 997.6
20260503185133 60 219 13.0 22.6 0.00 0.00 0.00 55 997.7
20260503184410 60 240 12.2 22.6 0.00 0.00 0.00 55 997.6
20260503183911 60 212 10.4 19.1 0.00 0.00 0.00 55 997.7
20260503183410 60 211 11.3 20.9 0.00 0.00 0.00 55 997.6
20260503182910 60 201 12.2 20.9 0.00 0.00 0.00 55 997.7
20260503182634 60 231 13.0 20.9 0.00 0.00 0.00 54 997.8
20260503182134 59 216 13.9 25.2 0.00 0.00 0.00 54 997.8
20260503181410 59 219 13.0 25.2 0.00 0.00 0.00 54 997.9
20260503180910 60 231 13.0 26.9 0.00 0.00 0.00 54 998.0
20260503180635 60 149 13.0 26.9 0.00 0.00 0.00 54 998.4
20260503175910 59 190 13.0 26.1 0.00 0.00 0.00 55 998.1
20260503175635 59 240 13.9 26.1 0.00 0.00 0.00 56 998.2
20260503174911 59 144 13.9 22.6 0.00 0.00 0.00 56 998.3
20260503174639 59 203 13.0 24.3 0.00 0.00 0.00 57 998.4
20260503173911 58 205 12.2 24.3 0.00 0.00 0.00 57 998.5
20260503173409 58 174 12.2 22.6 0.00 0.00 0.00 59 998.6
20260503172910 58 166 12.2 20.9 0.00 0.00 0.00 61 998.8
20260503172627 58 219 12.2 21.7 0.00 0.00 0.00 61 998.9
20260503171911 57 174 13.9 21.7 0.00 0.00 0.00 62 999.0
20260503171409 57 224 12.2 21.7 0.00 0.00 0.00 63 999.3
20260503170910 56 191 10.4 20.9 0.00 0.00 0.00 64 999.5
20260503170409 56 221 11.3 21.7 0.00 0.00 0.00 66 999.6
20260503170129 55 207 12.2 21.7 0.00 0.00 0.00 66 999.7
20260503150903 54 257 16.5 25.2 0.00 0.00 0.00 66 1001.9
20260503150401 54 248 20.0 27.8 0.00 0.00 0.00 65 1001.8
20260503130845 51 253 13.9 19.1 0.00 0.00 0.00 61 1002.8
20260503110653 49 244 13.0 17.4 0.00 0.00 0.00 60 1002.0
20260503110149 49 250 13.0 17.4 0.00 0.00 0.00 63 1002.1